Tracking 29091 objects as of 17-Jul-2024
HD Live streaming from Space Station
objects crossing your sky now

ATLAS 5 CENTAUR DEB

Track ATLAS 5 CENTAUR DEB now!


NORAD ID: 46601
Int'l Code: 2018-079BZ
Perigee: 9,153.0 km
Apogee: 34,022.1 km
Inclination: 11.9 °
Period: 775.4 minutes
Semi major axis: 27958 km
RCS: Unknown
Launch date: October 17, 2018
Source: United States (US)
Launch site: AIR FORCE EASTERN TEST RANGE (AFETR)

Note: This is SATELLITE DEBRIS
Your satellite tracking list
Your tracking list is empty




NASA's NSSDC Master Catalog

Two Line Element Set (TLE):
1 46601U 18079BZ  24191.20293478 -.00000129  00000-0  00000-0 0  9997
2 46601  11.8674  97.7372 4447503 198.2387 138.5188  1.85708530 28344
Source of the keplerian elements: AFSPC